TimeMST,TemperatureF,Dew PointF,Humidity,Sea Level PressureIn,VisibilityMPH,Wind Direction,Wind SpeedMPH,Gust SpeedMPH,PrecipitationIn,Events,Conditions,WindDirDegrees,DateUTC
12:15 AM,18.3,0.7,46,30.12,10.0,WNW,3.5,-,N/A,,Clear,300,2013-02-27 07:15:00
12:35 AM,17.4,0.1,47,30.12,10.0,NNW,4.6,-,N/A,,Clear,330,2013-02-27 07:35:00
12:55 AM,17.6,1.6,50,30.12,10.0,NW,3.5,-,N/A,,Clear,310,2013-02-27 07:55:00
1:15 AM,14.4,-0.2,52,30.13,10.0,NW,5.8,-,N/A,,Clear,310,2013-02-27 08:15:00
1:35 AM,13.1,-0.2,55,30.14,10.0,NW,5.8,-,N/A,,Clear,310,2013-02-27 08:35:00
1:55 AM,11.5,-0.2,59,30.15,10.0,WNW,4.6,-,N/A,,Clear,300,2013-02-27 08:55:00
2:15 AM,11.3,-0.9,58,30.15,10.0,Calm,Calm,-,N/A,,Clear,0,2013-02-27 09:15:00
2:35 AM,11.8,-0.0,59,30.16,10.0,NW,3.5,-,N/A,,Clear,310,2013-02-27 09:35:00
2:55 AM,10.0,-0.6,62,30.16,10.0,North,5.8,-,N/A,,Clear,350,2013-02-27 09:55:00
3:15 AM,7.5,-4.0,59,30.15,10.0,NNW,6.9,-,N/A,,Clear,340,2013-02-27 10:15:00
3:35 AM,8.6,-2.2,62,30.15,10.0,NNW,10.4,-,N/A,,Clear,340,2013-02-27 10:35:00
3:55 AM,6.6,-3.8,62,30.16,10.0,NNW,4.6,-,N/A,,Clear,330,2013-02-27 10:55:00
4:15 AM,7.0,-3.5,62,30.16,10.0,NNW,6.9,-,N/A,,Clear,330,2013-02-27 11:15:00
4:35 AM,7.7,-2.0,65,30.18,10.0,Calm,Calm,-,N/A,,Clear,0,2013-02-27 11:35:00
4:55 AM,7.2,-1.5,68,30.18,10.0,West,3.5,-,N/A,,Clear,280,2013-02-27 11:55:00
5:15 AM,8.2,-1.3,65,30.18,10.0,NW,6.9,-,N/A,,Clear,320,2013-02-27 12:15:00
5:35 AM,8.2,-1.1,66,30.19,10.0,NW,6.9,-,N/A,,Clear,320,2013-02-27 12:35:00
5:55 AM,7.0,-2.4,66,30.20,10.0,NNW,6.9,-,N/A,,Clear,340,2013-02-27 12:55:00
6:15 AM,8.1,-0.0,70,30.20,10.0,NW,8.1,-,N/A,,Clear,310,2013-02-27 13:15:00
6:35 AM,6.6,-1.3,70,30.20,10.0,East,3.5,-,N/A,,Clear,80,2013-02-27 13:35:00
6:55 AM,6.8,-2.6,66,30.21,10.0,NW,3.5,-,N/A,,Clear,320,2013-02-27 13:55:00
7:15 AM,7.3,-1.5,67,30.22,10.0,NW,3.5,-,N/A,,Clear,320,2013-02-27 14:15:00
7:35 AM,12.6,1.8,62,30.24,10.0,Calm,Calm,-,N/A,,Clear,0,2013-02-27 14:35:00
7:55 AM,17.6,4.3,56,30.26,10.0,Calm,Calm,-,N/A,,Clear,0,2013-02-27 14:55:00
8:15 AM,20.7,5.2,51,30.26,10.0,Calm,Calm,-,N/A,,Clear,0,2013-02-27 15:15:00
8:35 AM,23.0,5.7,48,30.26,10.0,NNW,3.5,-,N/A,,Clear,330,2013-02-27 15:35:00
8:55 AM,26.2,6.8,44,30.27,10.0,North,5.8,-,N/A,,Clear,350,2013-02-27 15:55:00
9:15 AM,28.2,8.4,43,30.27,10.0,North,9.2,-,N/A,,Clear,360,2013-02-27 16:15:00
9:35 AM,29.7,8.6,41,30.26,10.0,North,9.2,-,N/A,,Clear,350,2013-02-27 16:35:00
9:55 AM,30.4,9.1,41,30.26,10.0,NNW,8.1,-,N/A,,Clear,340,2013-02-27 16:55:00
10:15 AM,31.6,8.6,38,30.26,10.0,North,6.9,-,N/A,,Clear,360,2013-02-27 17:15:00
10:35 AM,32.2,8.4,37,30.26,10.0,NNW,5.8,-,N/A,,Clear,330,2013-02-27 17:35:00
10:55 AM,33.1,7.2,34,30.26,10.0,NW,5.8,-,N/A,,Clear,320,2013-02-27 17:55:00
11:15 AM,34.0,7.7,33,30.26,10.0,WNW,4.6,-,N/A,,Clear,290,2013-02-27 18:15:00
11:55 AM,36.3,4.8,27,30.24,10.0,Calm,Calm,-,N/A,,Clear,0,2013-02-27 18:55:00
12:35 PM,38.3,3.0,23,30.23,10.0,North,3.5,-,N/A,,Clear,350,2013-02-27 19:35:00
12:55 PM,39.6,2.8,22,30.21,10.0,Calm,Calm,-,N/A,,Clear,0,2013-02-27 19:55:00
1:15 PM,40.1,2.7,21,30.20,10.0,NW,9.2,-,N/A,,Clear,320,2013-02-27 20:15:00
1:35 PM,41.0,3.6,21,30.20,10.0,WNW,9.2,-,N/A,,Clear,290,2013-02-27 20:35:00
1:55 PM,41.7,3.9,21,30.20,10.0,North,9.2,-,N/A,,Clear,360,2013-02-27 20:55:00
2:15 PM,40.8,3.4,21,30.20,10.0,NE,8.1,-,N/A,,Clear,40,2013-02-27 21:15:00
2:35 PM,41.2,3.6,21,30.19,10.0,Calm,Calm,-,N/A,,Clear,0,2013-02-27 21:35:00
2:55 PM,42.1,3.4,20,30.18,10.0,NNE,4.6,-,N/A,,Clear,20,2013-02-27 21:55:00
3:15 PM,41.7,2.8,20,30.18,10.0,NNE,4.6,-,N/A,,Clear,30,2013-02-27 22:15:00
3:35 PM,43.0,3.0,19,30.18,10.0,NNW,9.2,-,N/A,,Clear,340,2013-02-27 22:35:00
3:55 PM,43.0,2.7,19,30.18,10.0,WNW,4.6,-,N/A,,Clear,300,2013-02-27 22:55:00
4:15 PM,42.8,1.8,18,30.18,10.0,NW,10.4,18.4,N/A,,Clear,320,2013-02-27 23:15:00
4:35 PM,41.5,0.5,18,30.18,10.0,NNE,5.8,-,N/A,,Clear,20,2013-02-27 23:35:00
4:55 PM,41.5,0.5,18,30.18,10.0,NNW,8.1,17.3,N/A,,Clear,340,2013-02-27 23:55:00
5:15 PM,41.0,0.1,18,30.18,10.0,NNE,9.2,-,N/A,,Clear,20,2013-02-28 00:15:00
5:35 PM,39.6,-0.0,19,30.18,10.0,North,10.4,-,N/A,,Clear,350,2013-02-28 00:35:00
5:55 PM,37.8,-0.0,20,30.20,10.0,North,9.2,-,N/A,,Clear,350,2013-02-28 00:55:00
6:15 PM,34.9,-1.5,21,30.20,10.0,NNW,9.2,-,N/A,,Clear,340,2013-02-28 01:15:00
6:35 PM,32.9,-2.2,22,30.21,10.0,North,6.9,-,N/A,,Clear,350,2013-02-28 01:35:00
7:15 PM,28.0,-3.5,26,30.23,10.0,NW,8.1,-,N/A,,Clear,310,2013-02-28 02:15:00
7:35 PM,27.9,-2.9,26,30.24,10.0,WNW,10.4,-,N/A,,Clear,300,2013-02-28 02:35:00
7:55 PM,26.1,-2.6,29,30.24,10.0,WNW,5.8,-,N/A,,Clear,300,2013-02-28 02:55:00
8:15 PM,23.4,-3.1,31,30.24,10.0,NW,6.9,-,N/A,,Clear,310,2013-02-28 03:15:00
8:35 PM,19.8,-4.4,35,30.24,10.0,NW,5.8,-,N/A,,Clear,320,2013-02-28 03:35:00
8:55 PM,20.5,-4.9,33,30.26,10.0,NNW,5.8,-,N/A,,Clear,330,2013-02-28 03:55:00
9:15 PM,18.9,-3.1,38,30.26,10.0,NNW,8.1,-,N/A,,Clear,340,2013-02-28 04:15:00
9:35 PM,18.9,-3.8,37,30.26,10.0,North,6.9,-,N/A,,Clear,350,2013-02-28 04:35:00
9:55 PM,16.3,-4.0,41,30.26,10.0,North,8.1,-,N/A,,Clear,350,2013-02-28 04:55:00
10:15 PM,16.0,-4.0,41,30.27,10.0,NNW,8.1,-,N/A,,Clear,330,2013-02-28 05:15:00
10:35 PM,15.4,-4.7,41,30.27,10.0,NNW,5.8,-,N/A,,Clear,330,2013-02-28 05:35:00
10:55 PM,13.6,-4.4,45,30.27,10.0,NNW,6.9,-,N/A,,Clear,340,2013-02-28 05:55:00
11:15 PM,14.7,-4.0,43,30.27,10.0,NW,4.6,-,N/A,,Clear,310,2013-02-28 06:15:00
11:35 PM,15.8,-2.4,45,30.28,10.0,NW,6.9,-,N/A,,Clear,310,2013-02-28 06:35:00
11:55 PM,14.7,-3.1,45,30.27,10.0,NNW,6.9,-,N/A,,Clear,330,2013-02-28 06:55:00